Weather in Kievskoe

Russia / Krasnodar Krai     45°02′17″N   37°53′22″E
temp.,
°C
wind,
m/s
gust,
m/s
humid.,
%
clouds,
%
prec.,
mm/h
press.,
hPa
HPBL,
m
19 september, sun
sun1900:00+16s2293100 0.0 101216
03:00+16s238264 0.0 101254
06:00+15sse339373 0.4 101239
09:00+18sse3685100 1.1 1012224
12:00+21ssw487793 0.3 1012526
15:00+22ssw5857100 0.4 10121138
18:00+19s497282 0.2 1011486
21:00+18ssw41088100 0.3 1011326
20 september, mon
mon2000:00+19ssw5118752 0.2 1011437
03:00+17ssw36910 0.6 1011121
06:00+16wsw33925 0.6 101249
09:00+20w346772 0.8 1013495
12:00+25wsw353999 0.1 10131874
15:00+22wsw6748100 0.2 1013969
18:00+19s236213 0.0 1013110
21:00+15sw3380100 0.0 101441
21 september, tue
tue2100:00+16sw36816 0.0 1014108
03:00+15wnw228568 0.0 101531
06:00+14n118080 0.0 101513
09:00+17e2361100 0.0 1015467
12:00+19ne3454100 0.0 1014643
15:00+16nnw7863100 0.1 1014442
18:00+13n2395100 7.2 1015268
21:00+13n019481 8.6 1015129
22 september, wed
wed2200:00+14w2690100 0.1 1015352
03:00+11w228145 0.2 101622
06:00+9w23865 0.0 101633
09:00+14nw45677 0.0 1016876
12:00+15nw455777 0.1 10151490
15:00+14nw446167 0.3 1015945
18:00+13nnw3465100 0.1 1015602
21:00+12wnw227194 0.1 101580
23 september, thu
thu2300:00+11s227485 0.0 101427
03:00+11se117493 0.0 101335
06:00+10ese2276100 0.0 101266
09:00+12ese2366100 0.0 1012311
12:00+15e2355100 0.0 1010844
15:00+13wsw1172100 0.4 1010138
18:00+11nw2290100 1.5 1010105
21:00+11wnw1187100 2.8 101131